Home > Time Zones > World Clock > Weather > U.S.A. > Adak > Past weeks

Flag for U.S.A. Weather past 2 weeks in Adak, Alaska, U.S.A.

Now
48 °F

Low clouds.


Feels Like: 44 °F
Forecast: 48 / 54 °F
Wind: 9 mph from East

Location: Adak

Current Time: Aug 3, 2015 at 4:19:43 AM

Latest Report: Aug 3, 2015 at 3:56 AM


Visibility: 10 mi

Pressure: 30.25 "Hg

Humidity: 76%

Dew point: 41 °F

Location of AdakLocation

Historic Weather in Adak — Graph

°F

Adak temperature yesterday

Maximum temperature yesterday: 55 °F (at 1:56 PM)
Minimum temperature yesterday: 45 °F (at 12:36 AM)
Average temperature yesterday: 49 °F

Past Weeks' High & Low Weather Summary

 TemperatureHumidityPressure
High63 °F (Jul 27, 3:56 PM)87% (Jul 22, 10:16 PM)30.35 "Hg (Jul 22, 10:16 PM)
Low43 °F (Jul 26, 3:16 AM)52% (Jul 27, 3:16 PM)29.61 "Hg (Jul 20, 4:36 AM)
Average49 °F76%30.07 "Hg
* Reported Jul 19 3:16 AM — Aug 3 3:16 AM, Adak, Weather by CustomWeather, © 2015

Note: Actual official high and low records may vary slightly from our data, if they occured in-between our weather recording intervals... More about our weather records

Advertising

Adak weather history for previous 24 hours

 ConditionsComfort  
Time TempWeatherWind HumidityBarometerVisibility
3:16 AM
Mon, Aug 3
48 °FLow clouds.9 mph76%30.25 "Hg6 mi
2:56 AM48 °FLow clouds.9 mph82%30.25 "Hg7 mi
2:36 AM48 °FLow clouds.9 mph82%30.25 "Hg4 mi
2:16 AM48 °FLow clouds.6 mph76%30.25 "Hg9 mi
1:56 AM48 °FLow clouds.6 mph76%30.25 "Hg10 mi
1:36 AM46 °FLow clouds.5 mph82%30.26 "Hg6 mi
1:16 AM46 °FLow clouds.6 mph76%30.25 "Hg9 mi
12:36 AM46 °FLow clouds.7 mph82%30.25 "Hg10 mi
12:16 AM48 °FLow clouds.7 mph76%30.25 "Hg10 mi
11:56 PM
Sun, Aug 2
48 °FOvercast.7 mph76%30.25 "Hg10 mi
11:36 PM48 °FOvercast.8 mph76%30.25 "Hg10 mi
11:16 PM48 °FOvercast.6 mph82%30.25 "Hg10 mi
10:56 PM48 °FOvercast.No wind76%30.25 "Hg10 mi
10:36 PM48 °FOvercast.No wind71%30.24 "Hg10 mi
10:16 PM48 °FOvercast.No wind71%30.24 "Hg10 mi
9:56 PM48 °FPartly sunny.5 mph76%30.24 "Hg10 mi
9:36 PM48 °FScattered clouds.6 mph76%30.24 "Hg10 mi
9:16 PM50 °FPartly sunny.6 mph71%30.24 "Hg10 mi
8:56 PM50 °FPassing clouds.6 mph76%30.24 "Hg10 mi
8:36 PM52 °FSunny.7 mph67%30.24 "Hg10 mi
7:56 PM52 °FSunny.7 mph72%30.24 "Hg10 mi
7:16 PM54 °FSunny.8 mph67%30.24 "Hg10 mi
6:56 PM54 °FSunny.9 mph67%30.25 "Hg10 mi
6:36 PM54 °FSunny.10 mph67%30.25 "Hg10 mi
6:16 PM54 °FSunny.10 mph72%30.26 "Hg10 mi
5:56 PM54 °FSunny.9 mph67%30.26 "Hg10 mi
5:36 PM54 °FSunny.9 mph67%30.26 "Hg10 mi
5:16 PM54 °FSunny.9 mph67%30.26 "Hg10 mi
4:56 PM54 °FSunny.9 mph67%30.26 "Hg10 mi
4:36 PM54 °FSunny.9 mph67%30.26 "Hg10 mi
4:16 PM54 °FSunny.9 mph67%30.27 "Hg10 mi
3:56 PM54 °FSunny.10 mph67%30.27 "Hg10 mi
3:36 PM54 °FSunny.10 mph67%30.27 "Hg10 mi
3:16 PM54 °FSunny.10 mph67%30.27 "Hg10 mi
2:56 PM54 °FSunny.10 mph67%30.27 "Hg10 mi
2:36 PM54 °FSunny.13 mph67%30.28 "Hg10 mi
2:16 PM54 °FSunny.13 mph72%30.27 "Hg10 mi
1:56 PM55 °FSunny.13 mph67%30.27 "Hg10 mi
1:16 PM54 °FSunny.12 mph67%30.27 "Hg10 mi
12:56 PM54 °FPassing clouds.10 mph67%30.27 "Hg10 mi
12:36 PM54 °FPartly sunny.10 mph67%30.28 "Hg10 mi
11:56 AM52 °FScattered clouds.9 mph72%30.28 "Hg10 mi
11:36 AM52 °FOvercast.10 mph72%30.28 "Hg10 mi
11:16 AM52 °FOvercast.7 mph72%30.28 "Hg10 mi
10:56 AM52 °FOvercast.5 mph72%30.28 "Hg10 mi
10:36 AM50 °FOvercast.5 mph76%30.28 "Hg10 mi
10:16 AM50 °FOvercast.7 mph76%30.28 "Hg10 mi
9:56 AM48 °FOvercast.7 mph82%30.28 "Hg10 mi
9:36 AM48 °FOvercast.7 mph76%30.28 "Hg10 mi
9:16 AM48 °FOvercast.6 mph76%30.28 "Hg10 mi
8:56 AM48 °FOvercast.6 mph82%30.28 "Hg10 mi
8:36 AM46 °FOvercast.7 mph82%30.28 "Hg10 mi
8:16 AM46 °FOvercast.7 mph76%30.27 "Hg10 mi
7:56 AM45 °FPartly sunny.No wind76%30.27 "Hg10 mi
7:36 AM45 °FScattered clouds.3 mph76%30.27 "Hg10 mi
7:16 AM45 °FScattered clouds.No wind76%30.27 "Hg10 mi
6:56 AM45 °FClear.8 mph76%30.26 "Hg10 mi
6:36 AM46 °FPassing clouds.No wind71%30.27 "Hg10 mi
6:16 AM45 °FPassing clouds.No wind76%30.27 "Hg10 mi
5:56 AM45 °FClear.No wind76%30.27 "Hg10 mi
5:36 AM45 °FClear.No wind76%30.27 "Hg10 mi
5:16 AM46 °FPassing clouds.5 mph76%30.27 "Hg10 mi
4:56 AM46 °FPassing clouds.5 mph76%30.27 "Hg10 mi
4:36 AM45 °FClear.3 mph81%30.27 "Hg10 mi
4:16 AM45 °FClear.No wind76%30.27 "Hg10 mi
Weather by CustomWeather, © 2015

See weather overviewHow to use our weather pages